• In Belgien
  • Länderverzeichnis
  • Für 7 Tage
  • Wassertemperatur
  • Satellitenkarten
  • Wetterkarte
  • Widgets
  • user-avatar
    Anmelden

    Stündliche Wetter Townsville

    Heute, 12 Dezember, Dienstag

    Zeit Temperatur Niederschläge Wind Luftdruck Luftfeuchtigkeit
    00:00 +25°C° 0,8 mm 3 m/S 752 mmHg 87%
    01:00 +25°C° 0,8 mm 3 m/S 752 mmHg 87%
    02:00 +25°C° 0,3 mm 3 m/S 752 mmHg 88%
    03:00 +24°C° 0,3 mm 3 m/S 752 mmHg 89%
    04:00 +24°C° 0 mm 3 m/S 752 mmHg 90%
    05:00 +25°C° 0 mm 3 m/S 752 mmHg 86%
    06:00 +25°C° 0 mm 3 m/S 752 mmHg 82%
    07:00 +26°C° 0 mm 3 m/S 752 mmHg 78%
    08:00 +28°C° 0 mm 4 m/S 752 mmHg 68%
    09:00 +30°C° 0 mm 4 m/S 752 mmHg 57%
    10:00 +33°C° 0 mm 4 m/S 752 mmHg 46%
    11:00 +34°C° 0 mm 5 m/S 752 mmHg 44%
    12:00 +34°C° 0 mm 5 m/S 752 mmHg 43%
    13:00 +35°C° 0 mm 5 m/S 751 mmHg 41%
    14:00 +34°C° 0,6 mm 5 m/S 751 mmHg 47%
    15:00 +33°C° 0,6 mm 5 m/S 751 mmHg 52%
    16:00 +32°C° 0,6 mm 5 m/S 750 mmHg 58%
    17:00 +30°C° 0,6 mm 5 m/S 751 mmHg 65%
    18:00 +28°C° 0,6 mm 5 m/S 751 mmHg 73%
    19:00 +27°C° 0,6 mm 5 m/S 751 mmHg 80%
    20:00 +26°C° 0,4 mm 5 m/S 752 mmHg 81%
    21:00 +26°C° 0,4 mm 5 m/S 752 mmHg 83%
    22:00 +26°C° 0,4 mm 5 m/S 752 mmHg 84%
    23:00 +25°C° 0,2 mm 5 m/S 752 mmHg 85%

    Morgen, 13 Dezember, Mittwoch

    Zeit Temperatur Niederschläge Wind Luftdruck Luftfeuchtigkeit
    00:00 +25°C° 0,2 mm 4 m/S 752 mmHg 85%
    01:00 +25°C° 0,2 mm 4 m/S 752 mmHg 86%
    02:00 +23°C° 0 mm 4 m/S 751 mmHg 87%
    03:00 +23°C° 0 mm 4 m/S 751 mmHg 88%
    04:00 +24°C° 0 mm 3 m/S 751 mmHg 89%
    05:00 +23°C° 0 mm 4 m/S 751 mmHg 85%
    06:00 +25°C° 0 mm 4 m/S 752 mmHg 81%
    07:00 +26°C° 0 mm 4 m/S 752 mmHg 77%
    08:00 +28°C° 0 mm 4 m/S 752 mmHg 65%
    09:00 +30°C° 0 mm 4 m/S 752 mmHg 53%
    10:00 +33°C° 0 mm 4 m/S 752 mmHg 41%
    11:00 +34°C° 0 mm 4 m/S 751 mmHg 38%
    12:00 +35°C° 0 mm 5 m/S 751 mmHg 34%
    13:00 +36°C° 0 mm 5 m/S 750 mmHg 30%
    14:00 +35°C° 0 mm 5 m/S 750 mmHg 36%
    15:00 +35°C° 0 mm 6 m/S 749 mmHg 41%
    16:00 +34°C° 0 mm 6 m/S 749 mmHg 46%
    17:00 +32°C° 0 mm 6 m/S 749 mmHg 55%
    18:00 +29°C° 0 mm 5 m/S 750 mmHg 64%
    19:00 +27°C° 0 mm 5 m/S 750 mmHg 72%
    20:00 +27°C° 0 mm 4 m/S 751 mmHg 75%
    21:00 +26°C° 0 mm 4 m/S 751 mmHg 77%
    22:00 +26°C° 0 mm 4 m/S 752 mmHg 80%
    23:00 +25°C° 0 mm 4 m/S 752 mmHg 82%

    übermorgen, 14 Dezember, Donnerstag

    Zeit Temperatur Niederschläge Wind Luftdruck Luftfeuchtigkeit
    00:00 +25°C° 0 mm 3 m/S 752 mmHg 85%
    01:00 +25°C° 0 mm 3 m/S 751 mmHg 87%
    02:00 +24°C° 0 mm 3 m/S 751 mmHg 89%
    03:00 +24°C° 0 mm 2 m/S 751 mmHg 91%
    04:00 +24°C° 0 mm 2 m/S 750 mmHg 92%
    05:00 +25°C° 0 mm 2 m/S 751 mmHg 88%
    06:00 +25°C° 0 mm 2 m/S 751 mmHg 84%
    07:00 +26°C° 0 mm 2 m/S 752 mmHg 80%
    08:00 +28°C° 0 mm 3 m/S 751 mmHg 68%
    09:00 +31°C° 0 mm 3 m/S 751 mmHg 57%
    10:00 +34°C° 0 mm 3 m/S 751 mmHg 45%
    11:00 +35°C° 0 mm 3 m/S 751 mmHg 40%
    12:00 +36°C° 0 mm 4 m/S 750 mmHg 36%
    13:00 +37°C° 0 mm 4 m/S 749 mmHg 32%
    14:00 +37°C° 0 mm 4 m/S 749 mmHg 37%
    15:00 +36°C° 0 mm 5 m/S 748 mmHg 42%
    16:00 +35°C° 0 mm 5 m/S 748 mmHg 47%
    17:00 +33°C° 0 mm 5 m/S 748 mmHg 57%
    18:00 +30°C° 0 mm 4 m/S 749 mmHg 66%
    19:00 +28°C° 0 mm 4 m/S 749 mmHg 76%
    20:00 +27°C° 0 mm 4 m/S 750 mmHg 79%
    21:00 +27°C° 0 mm 4 m/S 751 mmHg 83%
    22:00 +27°C° 0 mm 3 m/S 751 mmHg 86%
    23:00 +26°C° 0 mm 3 m/S 751 mmHg 87%

    15 Dezember, Freitag

    Zeit Temperatur Niederschläge Wind Luftdruck Luftfeuchtigkeit
    00:00 +26°C° 0 mm 3 m/S 750 mmHg 88%
    01:00 +26°C° 0 mm 2 m/S 750 mmHg 89%
    02:00 +26°C° 0 mm 2 m/S 750 mmHg 90%
    03:00 +25°C° 0 mm 2 m/S 750 mmHg 92%
    04:00 +25°C° 0 mm 2 m/S 749 mmHg 93%
    05:00 +26°C° 0 mm 2 m/S 750 mmHg 88%
    06:00 +27°C° 0 mm 2 m/S 750 mmHg 84%
    07:00 +27°C° 0 mm 2 m/S 751 mmHg 80%
    08:00 +29°C° 0 mm 2 m/S 751 mmHg 69%
    09:00 +31°C° 0 mm 2 m/S 751 mmHg 58%
    10:00 +34°C° 0 mm 2 m/S 751 mmHg 47%
    11:00 +35°C° 0 mm 3 m/S 750 mmHg 43%
    12:00 +36°C° 0 mm 3 m/S 750 mmHg 38%
    13:00 +37°C° 0 mm 3 m/S 749 mmHg 34%
    14:00 +37°C° 0 mm 4 m/S 749 mmHg 38%
    15:00 +36°C° 0 mm 5 m/S 748 mmHg 43%
    16:00 +35°C° 0 mm 5 m/S 748 mmHg 47%
    17:00 +33°C° 0 mm 5 m/S 748 mmHg 56%
    18:00 +30°C° 0 mm 5 m/S 749 mmHg 65%
    19:00 +28°C° 0 mm 5 m/S 749 mmHg 74%
    20:00 +28°C° 0 mm 5 m/S 750 mmHg 76%
    21:00 +27°C° 0 mm 4 m/S 751 mmHg 78%
    22:00 +27°C° 0 mm 4 m/S 751 mmHg 81%
    23:00 +26°C° 0 mm 4 m/S 751 mmHg 83%

    16 Dezember, Samstag

    Zeit Temperatur Niederschläge Wind Luftdruck Luftfeuchtigkeit
    00:00 +26°C° 0 mm 4 m/S 751 mmHg 85%
    01:00 +25°C° 0 mm 4 m/S 750 mmHg 87%
    02:00 +25°C° 0 mm 3 m/S 750 mmHg 89%
    03:00 +25°C° 0 mm 3 m/S 750 mmHg 91%
    04:00 +25°C° 0 mm 3 m/S 750 mmHg 92%
    05:00 +26°C° 0 mm 3 m/S 750 mmHg 89%
    06:00 +26°C° 0 mm 3 m/S 751 mmHg 85%
    07:00 +27°C° 0 mm 4 m/S 752 mmHg 82%
    08:00 +29°C° 0 mm 4 m/S 752 mmHg 71%
    09:00 +32°C° 0 mm 4 m/S 752 mmHg 60%
    10:00 +34°C° 0 mm 4 m/S 752 mmHg 49%
    11:00 +35°C° 0 mm 5 m/S 751 mmHg 46%
    12:00 +36°C° 0 mm 5 m/S 750 mmHg 43%
    13:00 +37°C° 0 mm 5 m/S 750 mmHg 41%
    14:00 +37°C° 0 mm 5 m/S 750 mmHg 43%
    15:00 +36°C° 0 mm 5 m/S 749 mmHg 46%
    16:00 +35°C° 0 mm 5 m/S 749 mmHg 48%
    17:00 +34°C° 0 mm 5 m/S 749 mmHg 57%
    18:00 +32°C° 0 mm 5 m/S 749 mmHg 66%
    19:00 +29°C° 0 mm 5 m/S 750 mmHg 75%
    20:00 +28°C° 0 mm 5 m/S 750 mmHg 79%
    21:00 +28°C° 0 mm 5 m/S 751 mmHg 83%
    22:00 +27°C° 0 mm 5 m/S 751 mmHg 87%
    23:00 +27°C° 0,1 mm 5 m/S 751 mmHg 86%

    17 Dezember, Sonntag

    Zeit Temperatur Niederschläge Wind Luftdruck Luftfeuchtigkeit
    00:00 +27°C° 0,1 mm 5 m/S 751 mmHg 86%
    01:00 +27°C° 0,1 mm 5 m/S 750 mmHg 85%
    02:00 +27°C° 0,1 mm 5 m/S 750 mmHg 87%
    03:00 +27°C° 0,1 mm 4 m/S 750 mmHg 89%
    04:00 +26°C° 0,1 mm 4 m/S 750 mmHg 91%
    05:00 +26°C° 0 mm 4 m/S 750 mmHg 89%
    06:00 +27°C° 0 mm 4 m/S 751 mmHg 86%
    07:00 +27°C° 0 mm 4 m/S 751 mmHg 84%
    08:00 +29°C° 0 mm 4 m/S 751 mmHg 73%
    09:00 +32°C° 0 mm 4 m/S 751 mmHg 62%
    10:00 +34°C° 0 mm 4 m/S 751 mmHg 50%
    11:00 +35°C° 0 mm 5 m/S 751 mmHg 46%
    12:00 +37°C° 0 mm 5 m/S 750 mmHg 42%
    13:00 +39°C° 0 mm 6 m/S 750 mmHg 37%
    14:00 +38°C° 0 mm 6 m/S 749 mmHg 41%
    15:00 +36°C° 0 mm 6 m/S 749 mmHg 45%
    16:00 +36°C° 0 mm 7 m/S 748 mmHg 49%
    17:00 +34°C° 0 mm 6 m/S 749 mmHg 57%
    18:00 +32°C° 0 mm 6 m/S 749 mmHg 65%
    19:00 +29°C° 0 mm 6 m/S 750 mmHg 73%
    20:00 +28°C° 0 mm 6 m/S 750 mmHg 77%
    21:00 +28°C° 0 mm 6 m/S 751 mmHg 81%
    22:00 +27°C° 0 mm 6 m/S 751 mmHg 85%
    23:00 +27°C° 0,1 mm 5 m/S 751 mmHg 85%
    Mehr zeigen